Location: *
(35.8942°N, 23.3025°E)
Time: 12:58:43
(UTC+00:00)

Gurwin Techsat 1B - Pass Details

Date: 03 April 2023
Orbit: 811 x 813 km, 98.9° (Epoch: 28 May)

Event Time Altitude Azimuth Distance (km) Brightness Sun altitude
Rises 01:16:51 0° 13° (NNE) 3,343 12.5 -33.4°
Reaches altitude 10° 01:19:12 10° 15° (NNE) 2,408 11.6 -33.0°
Enters shadow 01:22:52 46° 19° (NNE) 1,087 9.5 -32.4°
